Le nostre stazioni meteo in Italia

Pubblicità
Il mio iltempo24.it
Decimomannu, Italia (16546): Temperatura & dewpoint: 14.02.2017 16:00:00 - 20.02.2017 16:00:00 (CET)Decimomannu, Italia (16546): velocità del vento: 14.02.2017 16:00:00 - 20.02.2017 16:00:00 (CET)Decimomannu, Italia (16546): direzione del vento: 14.02.2017 16:00:00 - 20.02.2017 16:00:00 (CET)Decimomannu, Italia (16546): reduced air pressure: 14.02.2017 16:00:00 - 20.02.2017 16:00:00 (CET)Decimomannu, Italia (16546): visibility: 14.02.2017 16:00:00 - 20.02.2017 16:00:00 (CET)
Data & Tempo tt [°C] td [°C] ff [km/h] ff [kn] dd ppp [hPa] vv [km]
20.02.2017 16:00:00 16,0 4,1 22 12 NNO 1022,2 20
20.02.2017 15:00:00 16,0 3,0 22 12 NO - 10
20.02.2017 14:00:00 16,0 4,0 13 7 NNO - 10
20.02.2017 13:00:00 16,0 5,3 5 3 NNO 1024,2 20
20.02.2017 12:00:00 16,0 9,0 5 3 NNO - 10
20.02.2017 11:00:00 13,0 9,0 4 2 N - 10
20.02.2017 10:00:00 10,0 7,9 4 2 NNO 1024,6 20
20.02.2017 09:00:00 5,0 3,0 4 2 NNO - 10
20.02.2017 08:00:00 3,0 2,0 4 2 NNO - 10
20.02.2017 07:00:00 3,0 1,4 4 2 NNO 1023,8 20
20.02.2017 06:00:00 2,0 0,0 4 2 N - 10
20.02.2017 05:00:00 3,0 1,0 2 1 NO - 10
20.02.2017 04:00:00 3,4 1,4 5 3 N 1023,6 12
20.02.2017 03:00:00 4,0 2,0 2 1 ONO - 10
20.02.2017 02:00:00 4,0 3,0 0 0 N - 10
20.02.2017 01:00:00 6,0 4,2 0 0 N 1024,0 12
20.02.2017 00:00:00 6,0 5,0 5 3 SE - 10
19.02.2017 23:00:00 7,0 5,0 4 2 SSE - 10
19.02.2017 22:00:00 8,4 6,5 5 3 S 1023,8 12
19.02.2017 21:00:00 9,0 7,0 4 2 E - 10
19.02.2017 20:00:00 11,0 8,0 4 2 ENE - 10
19.02.2017 19:00:00 12,0 7,7 2 1 NNE 1022,9 20
19.02.2017 18:00:00 14,0 7,0 11 6 SE - 10
19.02.2017 17:00:00 16,0 7,0 15 8 SSE - 10
19.02.2017 16:00:00 17,2 3,5 5 3 NNO 1021,9 20
19.02.2017 15:00:00 17,0 6,0 5 3 N - 10
19.02.2017 14:00:00 17,0 8,0 4 2 NO - 10
19.02.2017 13:00:00 16,8 8,5 2 1 ONO 1023,2 20
19.02.2017 12:00:00 16,0 8,0 2 1 ONO - 10
19.02.2017 11:00:00 14,0 9,0 5 3 N - 10
19.02.2017 10:00:00 11,0 7,7 5 3 NNO 1023,9 20
19.02.2017 09:00:00 8,0 5,0 5 3 NNO - 10
19.02.2017 08:00:00 6,0 4,0 8 4 NNO - 10
19.02.2017 07:00:00 6,0 3,7 4 2 NNO 1022,3 12
19.02.2017 06:00:00 7,0 5,0 4 2 NNO - 10
19.02.2017 05:00:00 9,0 7,0 4 2 N - 10
19.02.2017 04:00:00 9,0 6,8 4 2 NNE 1022,1 10
19.02.2017 03:00:00 9,0 6,0 0 0 N - 10
19.02.2017 02:00:00 9,0 6,0 0 0 N - 10
19.02.2017 01:00:00 9,0 6,3 4 2 N 1021,8 10
19.02.2017 00:00:00 9,0 7,0 0 0 N - 10
18.02.2017 23:00:00 9,0 7,0 4 2 O - 10
18.02.2017 22:00:00 10,4 8,5 4 2 NNE 1020,9 12
18.02.2017 21:00:00 12,0 10,0 5 3 NNE - 10
18.02.2017 20:00:00 12,0 10,0 4 2 N - 10
18.02.2017 19:00:00 13,0 10,4 5 3 N 1020,3 12
18.02.2017 18:00:00 14,0 10,0 11 6 N - 10
18.02.2017 17:00:00 15,0 10,0 16 9 NNO - 10
18.02.2017 16:00:00 16,2 8,9 15 8 NNO 1018,5 25
18.02.2017 15:00:00 16,0 10,0 13 7 NNO - 10
18.02.2017 14:00:00 17,0 10,0 13 7 NNO - 10
18.02.2017 13:00:00 16,0 10,1 13 7 NNO 1021,2 25
18.02.2017 12:00:00 15,0 10,0 15 8 NNO - 10
18.02.2017 11:00:00 14,0 11,0 13 7 N - 10
18.02.2017 10:00:00 11,0 8,4 2 1 NNO 1022,5 8
18.02.2017 09:00:00 8,0 6,0 2 1 NNO - 5
18.02.2017 08:00:00 5,0 3,0 2 1 NNO - 3,0
18.02.2017 07:00:00 5,0 2,5 0 0 N 1021,6 0,2
18.02.2017 06:00:00 5,0 3,0 8 4 ONO - 8
18.02.2017 05:00:00 7,0 5,0 4 2 NO - 8
18.02.2017 04:00:00 5,6 3,3 5 3 ONO 1022,2 0,2
18.02.2017 03:00:00 8,0 6,0 4 2 NO - 10
18.02.2017 02:00:00 8,0 6,0 5 3 N - 10
18.02.2017 01:00:00 8,2 5,8 4 2 N 1024,0 15
18.02.2017 00:00:00 8,0 6,0 4 2 N - 10
17.02.2017 23:00:00 8,0 6,0 2 1 NNO - 10
17.02.2017 22:00:00 8,4 6,4 9 5 ENE 1024,7 15
17.02.2017 21:00:00 9,0 7,0 4 2 NE - 10
17.02.2017 20:00:00 10,0 8,0 2 1 N - 10
17.02.2017 19:00:00 11,0 8,7 8 4 SE 1023,7 20
17.02.2017 18:00:00 13,0 10,0 11 6 SSE - 10
17.02.2017 17:00:00 15,0 8,0 15 8 SSE - 10
17.02.2017 16:00:00 17,0 10,4 15 8 SSE 1024,9 20
17.02.2017 15:00:00 17,0 10,0 11 6 SSE - 10
17.02.2017 14:00:00 18,0 10,0 8 4 ESE - 10
17.02.2017 13:00:00 17,4 10,3 8 4 S 1027,5 9
17.02.2017 12:00:00 16,0 11,0 8 4 S - 9
17.02.2017 11:00:00 15,0 12,0 0 0 N - 8
17.02.2017 10:00:00 10,6 8,2 0 0 N 1028,7 5
17.02.2017 09:00:00 7,0 5,0 4 2 NNO - 2,0
17.02.2017 08:00:00 4,0 2,0 4 2 NNO - 0,8
17.02.2017 07:00:00 4,0 1,7 2 1 NNO 1028,0 1,0
17.02.2017 06:00:00 4,0 2,0 4 2 NO - 1,0
17.02.2017 05:00:00 5,0 3,0 8 4 NNO - 7
17.02.2017 04:00:00 5,0 2,9 2 1 NE 1029,5 7
17.02.2017 03:00:00 6,0 3,0 4 2 ONO - 7
17.02.2017 02:00:00 6,0 4,0 2 1 NNE - 10
17.02.2017 01:00:00 6,8 4,8 0 0 N 1030,7 12
17.02.2017 00:00:00 8,0 6,0 4 2 NNO - 10
16.02.2017 23:00:00 8,0 6,0 2 1 N - 10
16.02.2017 22:00:00 8,4 6,4 9 5 ESE 1031,4 12
16.02.2017 21:00:00 9,0 7,0 8 4 ESE - 10
16.02.2017 20:00:00 10,0 8,0 9 5 SE - 10
16.02.2017 19:00:00 11,4 9,3 11 6 SE 1031,1 15
16.02.2017 18:00:00 13,0 10,0 13 7 SSE - 10
16.02.2017 17:00:00 15,0 11,0 16 9 SSE - 10
16.02.2017 16:00:00 17,0 10,8 15 8 SSE 1030,9 20
16.02.2017 15:00:00 18,0 9,0 8 4 SSE - 10
16.02.2017 14:00:00 18,0 9,0 8 4 SSE - 10
16.02.2017 13:00:00 17,8 9,9 2 1 SSO 1032,1 20
16.02.2017 12:00:00 17,0 10,0 2 1 NO - 10
16.02.2017 11:00:00 14,0 12,0 0 0 N - 10
16.02.2017 10:00:00 8,2 5,7 4 2 ONO 1033,3 6
16.02.2017 09:00:00 7,0 4,0 4 2 NO - 10
16.02.2017 08:00:00 4,0 2,0 4 2 N - 10
16.02.2017 07:00:00 4,6 2,3 8 4 N 1032,9 4,0
16.02.2017 06:00:00 5,0 3,0 4 2 NNO - 5
16.02.2017 05:00:00 5,0 3,0 8 4 NNO - 10
16.02.2017 04:00:00 5,2 2,9 2 1 SE 1033,0 10
16.02.2017 03:00:00 7,0 5,0 4 2 NE - 10
16.02.2017 02:00:00 7,0 5,0 5 3 NE - 10
16.02.2017 01:00:00 8,0 5,8 4 2 NNE 1033,8 10
16.02.2017 00:00:00 9,0 7,0 2 1 NNE - 10
15.02.2017 23:00:00 9,0 7,0 4 2 NE - 10
15.02.2017 22:00:00 10,0 7,8 5 3 SE 1033,7 10
15.02.2017 21:00:00 10,0 8,0 5 3 S - 10
15.02.2017 20:00:00 12,0 10,0 15 8 S - 10
15.02.2017 19:00:00 12,4 10,5 15 8 S 1032,8 16
15.02.2017 18:00:00 13,0 11,0 16 9 S - 10
15.02.2017 17:00:00 15,0 12,0 18 10 S - 10
15.02.2017 16:00:00 16,0 12,2 18 10 S 1032,6 20
15.02.2017 15:00:00 17,0 13,0 18 10 S - 10
15.02.2017 14:00:00 18,0 14,0 21 11 S - 10
15.02.2017 13:00:00 18,0 14,5 16 9 S 1033,1 14
15.02.2017 12:00:00 18,0 12,0 8 4 E - 10
15.02.2017 11:00:00 17,0 13,0 9 5 SE - 10
15.02.2017 10:00:00 15,0 11,8 2 1 SSO 1033,2 12
15.02.2017 09:00:00 10,0 8,0 2 1 O - 10
15.02.2017 08:00:00 7,0 5,0 4 2 NO - 10
15.02.2017 07:00:00 8,8 6,8 4 2 NNE 1031,9 10
15.02.2017 06:00:00 9,0 8,0 5 3 E - 10
15.02.2017 05:00:00 10,0 8,0 5 3 E - 10
15.02.2017 04:00:00 9,2 7,3 8 4 E 1030,9 10
15.02.2017 03:00:00 10,0 8,0 8 4 ENE - 10
15.02.2017 02:00:00 12,0 10,0 4 2 ESE - 10
15.02.2017 01:00:00 12,2 10,3 4 2 E 1030,2 10
15.02.2017 00:00:00 13,0 11,0 8 4 SE - 10
14.02.2017 23:00:00 14,0 12,0 16 9 SE - 10
14.02.2017 22:00:00 13,8 12,0 16 9 SE 1028,9 10
14.02.2017 21:00:00 14,0 12,0 16 9 SE - 10
14.02.2017 20:00:00 14,0 12,0 18 10 SE - 10
14.02.2017 19:00:00 14,2 12,4 22 12 ESE 1027,2 10
14.02.2017 18:00:00 15,0 13,0 21 11 SE - 10
14.02.2017 17:00:00 15,0 13,0 22 12 SE - 10
14.02.2017 16:00:00 16,0 14,0 29 16 SE 1025,9 12

tt = Temperatura
td = dewpoint
ff = velocità del vento
dd = direzione del vento
ppp = reduced air pressure
vv = visibility

Stazioni seguenti

WeatherPro
AMSI
MeteoEarth